Phoenix Deer Valley, AZ

8:59 PM MST on July 27, 2017 (GMT -0700)
Phoenix-Deer Valley Municipal

Weather History for KDVT - February, 2014

Change the Weather History Date:

Wednesday, February 5, 2014

  Actual Average Record
Temperature  
Mean Temperature 54 °F -  
Max Temperature 60 °F 64 °F 80 °F (2015)
Min Temperature 48 °F 44 °F 33 °F (2011)
Degree Days  
Heating Degree Days 11    
Growing Degree Days 4 (Base 50)    
Moisture  
Dew Point 32 °F    
Average Humidity 45    
Maximum Humidity 61    
Minimum Humidity 33    
Precipitation  
Precipitation 0.00 in - - ()
Sea Level Pressure  
Sea Level Pressure 29.98 in    
Wind  
Wind Speed 5 mph (NE)    
Max Wind Speed 9 mph    
Max Gust Speed -    
Visibility 10 miles    
Events Rain    
Averages and records for this station are not official NWS values.
T = Trace of Precipitation, MM = Missing Value Source: NWS Daily Summary

Daily Weather History Graph

Daily Weather History Graph

Search for Another Location

Airport or City:

Trip Planner

Search our weather history database for the weather conditions in past years. The results will help you decide how hot, cold, wet, or windy it might be!

Date:

Astronomy

Feb. 05, 2014 Rise Set
Actual Time 7:21 AM MST 6:03 PM MST
Civil Twilight 6:55 AM MST 6:29 PM MST
Nautical Twilight 6:26 AM MST 6:58 PM MST
Astronomical Twilight 5:56 AM MST 7:28 PM MST
Moon 10:59 AM MST (2/5) No Moon Set
Length of Visible Light 11h 33m
Length of Day
10h 41m
Waxing Crescent, 40% of the Moon is Illuminated
Feb 5
Waxing Crescent
Feb 6
First Quarter
Feb 14
Full
Feb 22
Last Quarter
Mar 1
New

Hourly Weather History & Observations

Time (MST) Temp. Dew Point Humidity Pressure Visibility Wind Dir Wind Speed Gust Speed Precip Events Conditions
12:53 AM 50.0 °F 30.9 °F 48% 30.02 in 10.0 mi NE 3.5 mph - N/A   Partly Cloudy
1:53 AM 50.0 °F 30.9 °F 48% 30.01 in 10.0 mi NNE 8.1 mph - N/A   Scattered Clouds
2:53 AM 51.1 °F 30.9 °F 46% 30.01 in 10.0 mi NE 6.9 mph - N/A   Mostly Cloudy
3:53 AM 50.0 °F 30.0 °F 46% 30.00 in 10.0 mi NNE 9.2 mph - N/A   Overcast
4:53 AM 51.1 °F 30.0 °F 44% 29.99 in 10.0 mi NE 6.9 mph - N/A   Overcast
5:53 AM 51.1 °F 30.0 °F 44% 29.99 in 10.0 mi North 5.8 mph - N/A   Overcast
6:53 AM 50.0 °F 30.0 °F 46% 29.99 in 10.0 mi NNE 5.8 mph - N/A   Overcast
7:53 AM 50.0 °F 30.9 °F 48% 29.99 in 10.0 mi North 5.8 mph - N/A   Overcast
8:53 AM 50.0 °F 37.0 °F 61% 30.01 in 10.0 mi ENE 8.1 mph - 0.00 in Rain Light Rain
9:53 AM 53.1 °F 37.9 °F 57% 30.01 in 10.0 mi NNE 8.1 mph - 0.00 in   Overcast
10:53 AM 55.9 °F 37.0 °F 49% 30.04 in 10.0 mi NNE 9.2 mph - N/A   Overcast
11:53 AM 57.9 °F 34.0 °F 41% 30.01 in 10.0 mi NNE 3.5 mph - N/A   Overcast
12:53 PM 59.0 °F 33.1 °F 38% 29.99 in 10.0 mi Calm Calm - N/A   Overcast
1:53 PM 59.0 °F 32.0 °F 36% 29.95 in 10.0 mi Calm Calm - N/A   Overcast
2:53 PM 60.1 °F 30.9 °F 33% 29.92 in 10.0 mi Calm Calm - N/A   Mostly Cloudy
3:53 PM 59.0 °F 30.0 °F 33% 29.93 in 10.0 mi SE 3.5 mph - N/A   Overcast
4:53 PM 59.0 °F 30.9 °F 35% 29.94 in 10.0 mi Calm Calm - N/A   Overcast
5:53 PM 57.9 °F 30.9 °F 36% 29.94 in 10.0 mi Calm Calm - N/A   Overcast
6:53 PM 57.9 °F 30.9 °F 36% 29.96 in 10.0 mi Calm Calm - N/A   Overcast
7:53 PM 55.9 °F 30.9 °F 39% 29.97 in 10.0 mi Calm Calm - N/A   Clear
8:53 PM 50.0 °F 32.0 °F 50% 29.98 in 10.0 mi NNE 3.5 mph - N/A   Clear
9:53 PM 48.9 °F 33.1 °F 54% 29.99 in 10.0 mi NE 8.1 mph - N/A   Clear
10:53 PM 48.9 °F 33.1 °F 54% 30.00 in 10.0 mi NE 6.9 mph - N/A   Clear
11:53 PM 48.0 °F 32.0 °F 54% 30.00 in 10.0 mi NE 6.9 mph - N/A   Clear